Tracking 19634 objects as of 21-May-2019
HD Live streaming from Space Station
objects crossing your sky now

AYAME 2 DEB

Track AYAME 2 DEB now!


NORAD ID: 28999
Int'l Code: 1980-018D
Perigee: 9,883.0 km
Apogee: 35,362.4 km
Inclination: 7.0 °
Period: 818.9 minutes
Semi major axis: 28993 km
RCS: 0.631 m2 (medium)
Launch date: February 22, 1980
Source: Japan (JPN)
Launch site: TANEGASHIMA SPACE CENTER (TNSTA)

Note: This is SATELLITE DEBRIS
aabbcc
Your satellite tracking list
Your tracking list is empty




NASA's NSSDC Master Catalog

Two Line Element Set (TLE):
1 28999U 80018D   19139.46262750 -.00000080  00000-0  00000+0 0  9997
2 28999   7.0376 254.6762 4393944 247.0089  61.7865  1.75851903 87186
Source of the keplerian elements: AFSPC